Probability
0 0 0 0 0 0 0 0 0 0 2 6 10 11 12 16 22 27 32 35 36 34 30 27 24 22 20 19 19 20 23 25 28 28 25 22 20 19 21 23 22 20 19 19
0 0 0 0 0 0 0 0 0 1 4 10 14 13 14 20 25 29 33 34 33 29 26 24 22 20 19 20 21 23 24 25 27 26 25 24 23 22 22 23 22 21 20 19
0 0 0 0 0 0 0 0 0 2 7 13 18 18 18 23 27 29 31 31 28 24 21 20 19 19 19 20 23 25 25 24 24 24 24 25 25 24 23 22 21 20 18 17
0 0 0 0 0 0 0 0 2 5 10 16 21 22 22 25 29 30 31 29 26 21 18 16 17 18 20 20 21 22 23 22 22 23 24 24 24 22 21 20 18 15 14 14
0 0 0 0 1 1 1 1 3 7 13 20 24 23 25 29 32 34 33 29 24 20 16 14 15 18 21 20 19 19 21 22 22 22 22 23 22 21 19 18 16 14 12 13
0 0 0 0 1 1 2 3 4 8 13 20 25 26 28 32 34 34 33 28 22 18 16 15 16 20 23 23 21 21 23 24 23 21 21 22 23 22 20 18 16 15 13 13
0 0 0 0 1 3 5 6 7 9 13 19 26 30 30 30 30 30 29 25 21 19 19 20 20 23 27 28 27 26 25 25 24 23 21 21 23 25 23 20 17 16 15 14
1 1 1 1 2 4 8 10 11 12 15 18 24 27 26 24 23 23 25 23 21 22 24 25 24 25 28 30 30 28 26 26 26 25 22 21 23 25 25 20 16 14 13 11
2 3 3 2 3 4 6 7 9 13 15 16 19 22 23 21 19 20 22 22 20 22 25 26 25 24 25 27 28 27 25 25 25 25 23 23 24 24 22 17 13 11 10 8
4 4 3 4 4 4 4 4 7 9 11 11 14 18 23 24 21 19 20 20 20 21 24 25 24 23 22 23 25 24 22 22 23 24 23 23 22 20 16 13 11 9 8 9
5 5 6 7 6 5 4 5 7 7 7 8 12 18 25 27 24 19 17 17 18 20 22 23 25 24 21 21 22 21 20 21 22 23 22 19 16 13 9 8 7 7 7 8
4 6 8 9 8 5 4 6 7 6 5 9 15 23 27 27 24 19 17 18 18 19 21 23 25 24 22 21 22 21 21 21 22 22 21 17 13 10 7 4 3 3 3 3
3 4 6 8 8 6 6 7 7 6 7 13 20 25 28 26 23 20 19 19 19 20 21 22 22 22 22 23 23 22 20 20 20 21 20 16 13 11 8 4 2 1 0 0
5 5 6 7 9 10 10 10 9 9 12 17 21 24 25 23 20 19 19 18 18 18 18 19 19 20 21 23 23 21 18 17 17 18 17 15 13 12 10 8 5 3 1 0
7 7 7 8 10 12 13 11 11 12 16 20 22 23 22 19 17 17 16 15 14 14 15 15 15 17 19 19 19 18 16 14 14 15 14 13 12 12 11 9 8 6 3 1
8 8 7 8 10 12 13 12 12 14 17 19 20 20 19 17 16 15 14 13 13 13 14 14 14 14 15 15 15 15 13 11 11 11 10 10 10 10 10 10 9 6 4 3
9 9 8 9 10 10 11 12 14 17 18 18 18 17 16 14 13 13 13 12 13 14 15 15 15 14 14 13 13 13 12 10 10 9 8 8 8 9 9 9 8 6 4 3
10 10 10 10 10 9 9 12 16 18 19 19 18 16 15 13 12 12 13 13 13 14 14 13 12 13 12 10 9 10 11 11 10 10 8 7 7 7 8 8 7 5 4 4
7 9 9 9 9 10 11 14 18 20 21 20 19 18 17 14 13 13 13 13 13 13 12 9 7 8 8 6 4 6 9 10 9 9 9 7 6 6 7 7 5 4 4 5
4 5 7 9 11 12 14 17 20 22 21 20 20 20 19 15 13 14 14 13 13 11 9 6 5 5 5 3 2 4 7 7 7 7 8 7 5 5 6 5 4 3 4 5
6 7 10 13 16 17 18 20 22 22 19 18 19 20 19 15 13 13 13 13 11 8 5 3 3 5 5 4 3 3 5 5 5 6 7 7 6 5 4 4 4 4 5 6
13 14 17 19 22 22 22 23 23 21 17 16 17 17 15 13 12 11 12 12 9 4 1 0 1 3 3 3 3 3 3 4 4 5 6 6 6 5 5 5 6 7 8 10
19 20 21 22 24 24 24 24 25 23 18 16 15 14 12 11 9 8 8 8 5 1 0 0 0 1 1 2 2 2 3 3 4 5 6 7 8 7 7 7 8 10 12 13
23 23 21 21 23 25 25 25 25 24 19 15 12 11 10 9 7 5 5 4 2 0 0 0 0 0 0 0 0 1 1 2 3 4 6 8 8 8 7 8 9 11 12 12
22 21 20 21 21 23 24 24 23 20 15 10 7 7 7 7 6 5 4 3 1 0 0 0 0 0 0 0 0 0 0 1 1 2 4 6 6 6 6 7 8 9 9 9
20 19 19 19 18 18 18 17 17 14 9 5 5 6 7 7 6 5 4 3 1 0 0 0 0 0 0 0 0 0 0 0 0 0 2 3 4 3 3 4 6 6 6 6
18 18 18 16 14 13 11 11 11 9 6 4 5 6 7 7 5 4 4 3 1 0 0 0 0 0 0 0 0 0 0 0 0 0 1 2 3 3 2 3 4 4 4 4
Wind_Speed
10 8 9 10 10 9 8 8 6 2 2 2 1 4 5 5 6 7 6 6 5 5 5 4 3 3 3 3 3 3 2 2 2 2 1 1 1 1 1 1 1 1 2 2
11 11 10 10 9 8 8 7 5 2 4 4 2 4 5 6 5 6 5 5 5 5 5 4 3 2 2 2 2 2 2 3 2 2 1 0 0 0 0 1 2 2 2 2
11 10 10 10 7 6 6 5 5 2 4 6 5 5 5 5 4 4 5 5 5 4 3 3 3 3 2 2 2 2 2 2 2 1 1 1 1 2 2 2 1 2 2 2
9 9 11 4 1 3 4 2 3 1 4 6 7 6 5 5 4 4 5 5 4 3 4 4 3 3 3 3 2 2 2 1 1 1 1 1 1 1 1 1 1 1 1 2
8 10 9 6 3 4 2 1 2 1 3 6 7 6 5 5 4 6 6 6 5 4 5 4 4 3 3 3 2 1 1 1 1 1 1 1 1 1 1 1 1 1 1 1
8 10 8 3 4 5 2 2 4 4 4 5 3 2 3 5 6 6 7 5 5 5 5 4 3 3 2 2 2 1 1 1 1 1 1 1 0 0 1 1 1 1 1 0
10 9 4 4 4 4 4 3 4 4 5 5 5 4 5 5 6 6 5 5 5 4 4 4 4 2 2 2 1 1 1 1 1 1 1 1 0 0 1 1 2 1 1 1
7 7 3 6 4 3 4 4 4 5 6 7 6 6 6 6 5 5 4 4 4 4 4 4 3 2 2 2 2 1 1 0 0 1 2 0 0 1 2 3 2 2 1 1
2 1 1 2 3 4 2 2 2 3 5 5 4 4 5 5 4 4 4 3 3 3 3 3 3 2 2 1 1 1 1 1 1 1 1 1 1 2 2 2 2 1 1 1
1 1 1 1 2 3 3 2 2 2 3 3 4 3 3 4 3 2 3 3 2 2 2 2 2 2 1 1 1 1 1 1 1 1 1 1 1 1 1 1 2 2 2 2
4 2 2 1 2 2 3 2 2 2 2 2 3 3 3 3 3 2 2 2 2 2 1 2 2 1 1 1 1 1 1 2 2 2 1 0 1 1 1 1 0 1 1 1
4 2 2 1 1 1 1 1 1 1 1 1 2 3 3 3 3 2 2 2 2 1 0 1 1 1 0 0 0 2 2 3 2 2 1 1 1 0 1 1 2 2 2 2
1 2 2 0 0 1 1 1 1 2 2 2 2 2 3 3 3 2 2 2 1 1 1 0 1 0 0 0 1 2 3 3 3 2 1 1 1 1 1 1 2 3 3 3
2 2 1 0 1 1 1 1 2 2 2 2 2 3 3 3 2 2 1 1 1 1 0 0 0 0 0 1 2 3 4 3 3 3 2 2 2 3 2 3 2 2 4 6
1 1 2 1 2 2 2 2 2 2 2 2 2 2 3 2 2 1 1 0 0 0 1 1 1 1 2 2 2 3 4 3 2 3 3 3 3 3 3 2 2 2 1 2
1 2 2 2 3 3 3 2 2 2 2 2 2 2 3 3 2 0 0 0 0 1 1 1 1 1 2 3 3 3 3 4 4 3 4 3 3 3 3 3 3 2 2 2
3 3 4 4 4 4 3 2 2 3 3 3 2 2 2 2 2 0 0 1 1 1 1 1 1 2 2 3 4 4 3 3 4 4 4 3 3 3 3 3 3 3 2 2
4 4 4 3 3 3 3 2 2 2 2 2 2 2 2 2 1 1 1 1 1 2 2 1 1 2 3 2 3 4 4 3 3 3 3 3 3 3 3 3 4 4 3 2
3 2 2 2 2 2 2 1 1 2 2 2 2 2 2 1 1 1 1 2 2 2 1 1 2 4 3 2 4 4 4 4 3 3 3 2 3 3 3 3 3 4 4 3
2 2 2 2 2 2 2 1 2 3 2 2 2 1 1 1 1 1 2 2 2 1 1 1 2 2 3 2 4 4 4 4 4 3 3 3 3 3 3 4 4 4 4 3
1 2 3 3 2 2 3 3 2 2 2 2 2 1 1 1 1 1 2 2 0 1 1 2 1 1 2 3 5 5 4 4 4 4 4 3 3 4 4 4 4 4 4 3
1 2 3 3 3 2 2 3 2 2 2 1 1 1 0 1 1 1 1 1 0 1 2 2 1 1 2 5 4 3 3 4 4 4 4 4 4 4 4 4 4 4 3 3
2 3 2 2 3 3 2 2 2 2 2 1 1 1 1 1 1 1 1 0 0 0 2 1 2 2 4 4 4 3 4 4 5 4 4 3 3 3 3 4 3 3 3 3
2 2 2 2 2 2 1 2 2 2 2 1 1 1 0 1 1 1 1 2 2 1 1 0 1 2 3 3 3 3 3 4 4 4 4 4 3 3 3 3 3 3 3 4
2 2 2 1 2 1 2 2 2 2 2 2 1 1 1 0 0 1 1 1 2 2 1 1 2 3 3 2 2 2 3 4 4 4 4 4 4 3 3 2 2 3 3 3
2 1 1 1 1 1 2 2 2 2 2 2 1 1 1 1 1 1 1 0 0 0 1 1 1 2 2 1 1 2 2 3 3 3 4 4 4 4 4 3 4 3 3 3
3 2 2 2 2 2 2 2 2 2 1 1 0 0 1 0 1 1 1 1 0 0 1 1 1 1 1 1 2 2 2 3 3 3 3 3 3 4 4 4 3 3 3 3
Wind_Direction
279 277 276 265 261 263 268 283 286 233 171 138 141 114 108 107 112 115 116 112 101 98 98 93 100 106 90 79 70 71 75 83 84 87 87 74 64 33 12 3 1 12 357 349
278 276 276 272 264 265 264 268 268 243 134 128 143 108 99 99 107 115 114 112 104 97 97 96 98 106 108 99 94 89 85 78 74 73 65 49 70 60 40 27 15 13 10 10
274 277 272 262 263 270 282 284 278 279 128 136 118 93 88 93 99 107 119 117 109 108 107 106 113 110 105 100 94 93 85 84 84 86 67 36 26 35 23 19 20 17 13 16
267 272 264 267 278 261 280 311 338 52 111 110 108 99 89 92 96 101 111 115 118 119 109 92 80 87 90 90 89 94 94 78 61 73 66 45 43 43 11 353 358 5 10 9
263 262 260 251 259 246 246 284 327 67 92 104 110 119 100 80 87 102 102 100 100 97 93 87 75 75 80 78 84 84 91 80 21 24 36 49 33 15 358 340 337 329 337 357
255 268 270 293 357 0 307 209 32 46 82 95 113 142 92 79 87 94 96 96 95 94 92 89 79 73 77 79 67 55 59 58 1 352 344 327 336 329 312 297 283 280 300 298
250 260 268 345 341 313 289 63 39 46 65 71 65 74 99 95 85 87 96 102 103 99 93 86 74 68 71 72 54 43 60 82 17 347 289 265 205 228 249 253 257 255 258 252
247 261 274 360 0 22 49 41 39 55 74 81 86 95 105 105 99 98 99 105 107 98 94 92 85 72 70 59 45 39 25 47 34 319 299 308 257 247 245 249 254 252 268 273
293 240 60 44 45 59 63 32 42 67 90 97 99 101 107 111 109 104 99 96 103 114 102 94 90 78 81 56 45 34 21 351 331 307 297 281 238 264 266 265 280 286 271 277
261 164 6 23 43 35 33 40 40 58 90 109 111 113 118 124 120 113 108 101 97 106 107 98 92 88 95 75 55 36 341 296 268 254 260 303 309 324 341 338 330 324 315 312
249 235 229 168 32 37 42 37 48 56 85 119 128 129 127 124 122 114 107 101 88 79 96 100 95 98 97 64 2 306 289 274 252 239 221 206 5 345 14 359 278 270 304 336
265 302 278 291 44 53 86 34 48 112 103 109 127 131 133 132 131 131 124 124 127 127 172 148 135 141 106 112 298 289 281 278 275 262 222 202 185 211 356 261 254 215 213 231
284 294 288 31 347 267 160 142 142 140 135 120 108 111 127 131 137 145 149 146 143 168 213 206 148 174 172 229 258 268 285 291 290 292 270 239 228 233 232 243 266 259 249 236
29 360 353 320 265 315 202 163 129 114 114 115 109 113 124 125 129 139 135 130 151 182 205 180 306 299 291 270 273 272 268 269 280 282 282 279 262 251 246 247 242 240 242 239
186 226 234 219 221 218 208 171 151 139 127 116 112 124 130 127 124 117 102 99 144 253 268 288 301 314 311 282 274 282 284 276 274 280 276 271 273 274 271 264 268 254 235 235
237 222 212 210 212 203 196 190 178 158 149 139 138 143 144 145 141 117 102 104 289 289 287 290 287 293 295 289 273 269 275 289 281 277 277 280 276 280 293 300 297 291 274 274
226 227 225 218 208 204 203 203 196 178 164 154 153 153 139 135 143 138 300 310 301 284 273 262 272 282 278 282 285 280 275 270 267 270 277 286 292 302 302 298 294 292 296 294
226 227 228 221 216 203 202 209 195 162 156 152 154 154 150 149 164 167 280 292 277 275 278 270 291 287 280 288 296 291 285 280 277 278 285 292 296 293 285 293 300 299 294 274
215 208 203 205 208 200 194 199 168 136 137 148 159 161 154 149 146 175 234 262 267 261 276 307 276 266 276 309 307 283 285 285 280 281 284 283 285 291 299 305 302 298 297 296
198 170 177 186 175 166 155 125 111 111 112 118 126 130 130 126 161 221 225 226 240 280 304 316 288 297 297 322 309 291 293 294 293 290 288 287 288 293 296 294 291 291 293 296
177 167 165 153 144 139 134 126 123 123 117 117 123 142 159 193 235 230 247 249 217 28 307 276 262 309 327 318 288 286 298 303 301 300 302 299 294 292 292 294 294 292 292 295
114 107 113 117 121 120 108 112 117 115 111 111 119 136 194 249 259 249 234 254 242 45 290 288 330 27 330 303 287 293 301 302 301 300 300 298 292 286 284 287 293 298 302 301
92 88 87 102 103 97 103 122 127 120 119 115 122 179 214 248 261 263 263 222 124 290 293 356 12 342 306 288 294 304 303 303 304 299 293 288 286 289 291 293 299 306 308 307
109 110 112 114 111 113 132 135 115 115 128 130 133 122 184 230 267 300 36 110 100 166 309 69 232 281 276 277 299 310 308 307 305 304 308 308 302 294 289 292 298 303 306 309
126 135 145 167 174 177 172 176 160 157 174 165 169 162 211 228 313 23 48 105 150 195 237 208 231 252 263 276 304 318 320 323 323 318 314 317 323 325 318 309 310 310 313 314
167 199 160 242 256 235 208 199 199 195 205 199 183 168 171 133 111 86 64 28 59 106 285 268 251 245 265 288 295 301 304 301 303 303 314 317 317 317 316 319 322 318 311 311
192 188 189 222 231 237 234 217 213 210 199 162 185 165 124 93 96 82 50 5 333 278 305 284 278 276 286 292 288 287 292 301 307 306 306 308 310 310 313 321 325 325 327 335